Time,TemperatureF,DewpointF,PressureIn,WindDirection,WindDirectionDegrees,WindSpeedMPH,WindSpeedGustMPH,Humidity,HourlyPrecipIn,Conditions,Clouds,dailyrainin,SoftwareType,DateUTC
2013-06-30 00:04:00,62.0,54.0,29.69,North,350,3.9,5.8,75,0.00,RA,SKC,0.00,WeatherDisplay:10.37,2013-06-30 05:04:00,
2013-06-30 00:09:00,61.8,53.8,29.69,North,350,3.4,5.0,75,0.00,RA,SKC,0.00,WeatherDisplay:10.37,2013-06-30 05:09:00,
2013-06-30 00:14:00,61.6,53.6,29.69,North,350,3.6,4.6,75,0.00,CLR,SKC,0.00,WeatherDisplay:10.37,2013-06-30 05:14:00,
2013-06-30 00:19:00,61.4,53.4,29.69,North,351,2.9,4.6,75,0.00,CLR,SKC,0.00,WeatherDisplay:10.37,2013-06-30 05:19:00,
2013-06-30 00:24:00,61.1,53.1,29.69,North,350,3.0,4.0,75,0.00,CLR,SKC,0.00,WeatherDisplay:10.37,2013-06-30 05:24:00,
2013-06-30 00:29:00,60.8,52.8,29.69,North,350,2.0,4.0,75,0.00,CLR,SKC,0.00,WeatherDisplay:10.37,2013-06-30 05:29:00,
2013-06-30 00:34:00,60.7,52.7,29.70,North,350,2.1,3.5,75,0.00,CLR,SKC,0.00,WeatherDisplay:10.37,2013-06-30 05:34:00,
2013-06-30 00:39:00,60.5,52.5,29.70,North,350,0.5,2.3,75,0.00,CLR,SKC,0.00,WeatherDisplay:10.37,2013-06-30 05:39:00,
2013-06-30 00:44:00,60.3,52.3,29.70,North,350,1.6,3.5,75,0.00,CLR,SKC,0.00,WeatherDisplay:10.37,2013-06-30 05:44:00,
2013-06-30 00:49:00,60.1,52.1,29.70,North,350,0.2,2.3,75,0.00,CLR,SKC,0.00,WeatherDisplay:10.37,2013-06-30 05:49:00,
2013-06-30 00:54:00,60.0,52.1,29.70,North,350,0.2,2.0,75,0.00,CLR,SKC,0.00,WeatherDisplay:10.37,2013-06-30 05:54:00,
2013-06-30 00:59:00,59.9,52.0,29.70,North,350,1.0,2.3,75,0.00,CLR,SKC,0.00,WeatherDisplay:10.37,2013-06-30 05:59:00,
2013-06-30 01:04:00,59.8,51.9,29.70,North,350,1.7,4.0,75,0.00,CLR,SKC,0.00,WeatherDisplay:10.37,2013-06-30 06:04:00,
2013-06-30 01:09:00,59.7,51.8,29.70,North,350,1.5,3.5,75,0.00,CLR,SKC,0.00,WeatherDisplay:10.37,2013-06-30 06:09:00,
2013-06-30 01:14:00,59.7,51.8,29.70,North,350,1.2,3.5,75,0.00,CLR,SKC,0.00,WeatherDisplay:10.37,2013-06-30 06:14:00,
2013-06-30 01:19:00,59.6,51.7,29.71,North,350,1.3,3.5,75,0.00,CLR,SKC,0.00,WeatherDisplay:10.37,2013-06-30 06:19:00,
2013-06-30 01:24:00,59.6,51.7,29.71,North,350,1.1,3.5,75,0.00,CLR,SKC,0.00,WeatherDisplay:10.37,2013-06-30 06:24:00,
2013-06-30 01:29:00,59.5,51.6,29.71,North,350,1.1,3.5,75,0.00,CLR,SKC,0.00,WeatherDisplay:10.37,2013-06-30 06:29:00,
2013-06-30 01:34:00,59.5,51.6,29.71,North,350,1.6,3.5,75,0.00,CLR,SKC,0.00,WeatherDisplay:10.37,2013-06-30 06:34:00,
2013-06-30 01:39:00,59.5,51.6,29.71,North,350,0.5,2.0,75,0.00,CLR,SKC,0.00,WeatherDisplay:10.37,2013-06-30 06:39:00,
2013-06-30 01:44:00,59.3,51.4,29.71,North,350,2.0,3.5,75,0.00,CLR,SKC,0.00,WeatherDisplay:10.37,2013-06-30 06:44:00,
2013-06-30 01:49:00,59.1,51.2,29.71,North,350,1.9,3.5,75,0.00,CLR,SKC,0.00,WeatherDisplay:10.37,2013-06-30 06:49:00,
2013-06-30 01:54:00,59.0,51.1,29.71,North,350,0.0,0.0,75,0.00,CLR,SKC,0.00,WeatherDisplay:10.37,2013-06-30 06:54:00,
2013-06-30 01:59:00,58.9,51.0,29.72,North,350,0.0,3.5,75,0.00,CLR,SKC,0.00,WeatherDisplay:10.37,2013-06-30 06:59:00,
2013-06-30 02:04:00,58.8,50.5,29.72,North,350,0.0,0.0,74,0.00,CLR,SKC,0.00,WeatherDisplay:10.37,2013-06-30 07:04:00,
2013-06-30 02:09:00,58.6,50.3,29.71,North,350,2.5,3.5,74,0.00,CLR,SKC,0.00,WeatherDisplay:10.37,2013-06-30 07:09:00,
2013-06-30 02:14:00,58.4,50.1,29.72,North,350,2.3,5.0,74,0.00,CLR,SKC,0.00,WeatherDisplay:10.37,2013-06-30 07:14:00,
2013-06-30 02:19:00,58.3,50.0,29.72,North,350,0.2,3.5,74,0.00,CLR,SKC,0.00,WeatherDisplay:10.37,2013-06-30 07:19:00,
2013-06-30 02:24:00,58.2,50.0,29.72,North,350,0.3,2.0,74,0.00,CLR,SKC,0.00,WeatherDisplay:10.37,2013-06-30 07:24:00,
2013-06-30 02:29:00,58.2,50.0,29.72,North,350,1.4,3.0,74,0.00,CLR,SKC,0.00,WeatherDisplay:10.37,2013-06-30 07:29:00,
2013-06-30 02:34:00,58.1,49.9,29.72,North,350,0.7,3.0,74,0.00,CLR,SKC,0.00,WeatherDisplay:10.37,2013-06-30 07:34:00,
2013-06-30 02:39:00,58.1,49.9,29.72,North,350,1.5,4.6,74,0.00,CLR,SKC,0.00,WeatherDisplay:10.37,2013-06-30 07:39:00,
2013-06-30 02:44:00,58.1,49.9,29.72,North,350,0.3,2.3,74,0.00,CLR,SKC,0.00,WeatherDisplay:10.37,2013-06-30 07:44:00,
2013-06-30 02:49:00,57.9,49.7,29.72,North,350,0.9,3.5,74,0.00,CLR,SKC,0.00,WeatherDisplay:10.37,2013-06-30 07:49:00,
2013-06-30 02:54:00,57.8,49.6,29.72,North,350,0.1,2.3,74,0.00,CLR,SKC,0.00,WeatherDisplay:10.37,2013-06-30 07:54:00,
2013-06-30 02:59:00,57.7,49.8,29.72,North,350,0.3,1.2,75,0.00,CLR,SKC,0.00,WeatherDisplay:10.37,2013-06-30 07:59:00,
2013-06-30 03:04:00,57.5,49.6,29.72,North,350,0.7,2.0,75,0.00,CLR,SKC,0.00,WeatherDisplay:10.37,2013-06-30 08:04:00,
2013-06-30 03:09:00,57.4,49.5,29.72,North,350,0.2,2.3,75,0.00,CLR,SKC,0.00,WeatherDisplay:10.37,2013-06-30 08:09:00,
2013-06-30 03:14:00,57.3,49.1,29.72,North,350,1.5,3.0,74,0.00,CLR,SKC,0.00,WeatherDisplay:10.37,2013-06-30 08:14:00,
2013-06-30 03:19:00,57.1,48.9,29.73,North,350,0.6,2.3,74,0.00,CLR,SKC,0.00,WeatherDisplay:10.37,2013-06-30 08:19:00,
2013-06-30 03:24:00,57.1,48.9,29.73,North,350,0.9,3.0,74,0.00,CLR,SKC,0.00,WeatherDisplay:10.37,2013-06-30 08:24:00,
2013-06-30 03:29:00,57.0,48.8,29.73,North,350,0.4,2.3,74,0.00,CLR,SKC,0.00,WeatherDisplay:10.37,2013-06-30 08:29:00,
2013-06-30 03:34:00,57.0,48.8,29.73,North,350,0.2,2.0,74,0.00,CLR,SKC,0.00,WeatherDisplay:10.37,2013-06-30 08:34:00,
2013-06-30 03:39:00,56.9,48.7,29.73,North,350,0.8,4.0,74,0.00,CLR,SKC,0.00,WeatherDisplay:10.37,2013-06-30 08:39:00,
2013-06-30 03:44:00,56.8,48.6,29.73,North,350,0.4,2.0,74,0.00,CLR,SKC,0.00,WeatherDisplay:10.37,2013-06-30 08:44:00,
2013-06-30 03:49:00,56.7,48.9,29.74,North,350,0.6,2.0,75,0.00,CLR,SKC,0.00,WeatherDisplay:10.37,2013-06-30 08:49:00,
2013-06-30 03:54:00,56.7,48.9,29.74,North,350,0.1,2.3,75,0.00,CLR,SKC,0.00,WeatherDisplay:10.37,2013-06-30 08:54:00,
2013-06-30 03:59:00,56.7,48.9,29.74,North,350,0.9,3.5,75,0.00,CLR,SKC,0.00,WeatherDisplay:10.37,2013-06-30 08:59:00,
2013-06-30 04:04:00,56.7,48.9,29.74,North,350,0.0,0.0,75,0.00,CLR,SKC,0.00,WeatherDisplay:10.37,2013-06-30 09:04:00,
2013-06-30 04:09:00,56.8,49.0,29.75,North,350,0.1,1.2,75,0.00,CLR,SKC,0.00,WeatherDisplay:10.37,2013-06-30 09:09:00,
2013-06-30 04:14:00,56.8,49.0,29.75,North,350,0.9,3.0,75,0.00,CLR,SKC,0.00,WeatherDisplay:10.37,2013-06-30 09:14:00,
2013-06-30 04:19:00,56.9,49.1,29.75,North,355,1.6,6.0,75,0.00,CLR,SKC,0.00,WeatherDisplay:10.37,2013-06-30 09:19:00,
2013-06-30 04:24:00,57.0,49.2,29.75,North,355,0.8,3.5,75,0.00,CLR,SKC,0.00,WeatherDisplay:10.37,2013-06-30 09:24:00,
2013-06-30 04:29:00,56.9,49.1,29.75,North,360,1.5,4.0,75,0.00,CLR,SKC,0.00,WeatherDisplay:10.37,2013-06-30 09:29:00,
2013-06-30 04:34:00,56.9,49.1,29.75,North,355,1.1,3.5,75,0.00,CLR,SKC,0.00,WeatherDisplay:10.37,2013-06-30 09:34:00,
2013-06-30 04:39:00,56.8,49.0,29.75,North,355,0.2,2.3,75,0.00,CLR,SKC,0.00,WeatherDisplay:10.37,2013-06-30 09:39:00,
2013-06-30 04:44:00,56.6,48.8,29.75,North,355,0.2,2.3,75,0.00,CLR,SKC,0.00,WeatherDisplay:10.37,2013-06-30 09:44:00,
2013-06-30 04:49:00,56.5,48.7,29.75,North,355,0.0,0.0,75,0.00,CLR,SKC,0.00,WeatherDisplay:10.37,2013-06-30 09:49:00,
2013-06-30 04:54:00,56.3,48.5,29.75,North,355,0.0,2.3,75,0.00,CLR,SKC,0.00,WeatherDisplay:10.37,2013-06-30 09:54:00,
2013-06-30 04:59:00,56.0,48.2,29.76,North,355,0.8,2.3,75,0.00,CLR,SKC,0.00,WeatherDisplay:10.37,2013-06-30 09:59:00,
2013-06-30 05:04:00,55.8,48.0,29.75,North,355,0.0,1.2,75,0.00,CLR,SKC,0.00,WeatherDisplay:10.37,2013-06-30 10:04:00,
2013-06-30 05:09:00,55.6,47.8,29.76,North,355,1.0,2.3,75,0.00,CLR,SKC,0.00,WeatherDisplay:10.37,2013-06-30 10:09:00,
2013-06-30 05:14:00,55.5,47.7,29.75,North,355,1.3,3.5,75,0.00,CLR,SKC,0.00,WeatherDisplay:10.37,2013-06-30 10:14:00,
2013-06-30 05:19:00,55.5,47.7,29.76,North,355,0.7,2.3,75,0.00,CLR,SKC,0.00,WeatherDisplay:10.37,2013-06-30 10:19:00,
2013-06-30 05:24:00,55.4,47.6,29.76,North,355,0.0,0.0,75,0.00,CLR,SKC,0.00,WeatherDisplay:10.37,2013-06-30 10:24:00,
2013-06-30 05:29:00,55.2,47.4,29.76,North,355,0.2,1.2,75,0.00,CLR,SKC,0.00,WeatherDisplay:10.37,2013-06-30 10:29:00,
2013-06-30 05:34:00,55.1,47.3,29.76,North,355,0.1,1.2,75,0.00,CLR,SKC,0.00,WeatherDisplay:10.37,2013-06-30 10:34:00,
2013-06-30 05:39:00,55.0,47.2,29.76,North,355,0.2,1.2,75,0.00,CLR,SKC,0.00,WeatherDisplay:10.37,2013-06-30 10:39:00,
2013-06-30 05:44:00,55.0,47.2,29.77,North,355,0.0,2.3,75,0.00,CLR,SKC,0.00,WeatherDisplay:10.37,2013-06-30 10:44:00,
2013-06-30 05:49:00,55.0,47.2,29.77,North,355,0.8,3.0,75,0.00,CLR,SKC,0.00,WeatherDisplay:10.37,2013-06-30 10:49:00,
2013-06-30 05:54:00,55.0,47.2,29.77,North,355,0.9,2.3,75,0.00,CLR,SKC,0.00,WeatherDisplay:10.37,2013-06-30 10:54:00,
2013-06-30 05:59:00,55.0,47.2,29.77,North,355,1.2,3.5,75,0.00,CLR,SKC,0.00,WeatherDisplay:10.37,2013-06-30 10:59:00,
2013-06-30 06:04:00,55.0,47.2,29.77,North,355,1.9,3.5,75,0.00,CLR,SKC,0.00,WeatherDisplay:10.37,2013-06-30 11:04:00,
2013-06-30 06:09:00,55.1,47.3,29.77,North,355,1.5,4.0,75,0.00,CLR,SKC,0.00,WeatherDisplay:10.37,2013-06-30 11:09:00,
2013-06-30 06:14:00,55.1,47.3,29.77,North,355,1.5,3.5,75,0.00,CLR,SKC,0.00,WeatherDisplay:10.37,2013-06-30 11:14:00,
2013-06-30 06:19:00,55.1,47.3,29.77,North,355,0.4,2.0,75,0.00,CLR,SKC,0.00,WeatherDisplay:10.37,2013-06-30 11:19:00,
2013-06-30 06:24:00,55.2,47.4,29.78,North,355,0.3,2.3,75,0.00,CLR,SKC,0.00,WeatherDisplay:10.37,2013-06-30 11:24:00,
2013-06-30 06:29:00,55.2,47.4,29.78,North,355,0.8,3.5,75,0.00,CLR,SKC,0.00,WeatherDisplay:10.37,2013-06-30 11:29:00,
2013-06-30 06:34:00,55.3,47.5,29.78,North,355,0.3,2.0,75,0.00,CLR,SKC,0.00,WeatherDisplay:10.37,2013-06-30 11:34:00,
2013-06-30 06:39:00,55.5,47.7,29.78,North,355,1.6,3.5,75,0.00,CLR,SKC,0.00,WeatherDisplay:10.37,2013-06-30 11:39:00,
2013-06-30 06:44:00,55.7,47.9,29.78,North,355,1.7,4.0,75,0.00,CLR,SKC,0.00,WeatherDisplay:10.37,2013-06-30 11:44:00,
2013-06-30 06:49:00,55.8,48.0,29.78,North,355,1.9,3.5,75,0.00,CLR,SKC,0.00,WeatherDisplay:10.37,2013-06-30 11:49:00,
2013-06-30 06:54:00,55.8,48.0,29.79,North,355,1.0,3.5,75,0.00,CLR,SKC,0.00,WeatherDisplay:10.37,2013-06-30 11:54:00,
2013-06-30 06:59:00,55.9,48.1,29.79,North,355,1.1,3.5,75,0.00,CLR,SKC,0.00,WeatherDisplay:10.37,2013-06-30 11:59:00,
2013-06-30 07:04:00,55.9,48.1,29.79,North,355,0.5,3.5,75,0.00,CLR,SKC,0.00,WeatherDisplay:10.37,2013-06-30 12:04:00,
2013-06-30 07:09:00,55.9,48.1,29.79,North,355,0.1,2.3,75,0.00,CLR,SKC,0.00,WeatherDisplay:10.37,2013-06-30 12:09:00,
2013-06-30 07:14:00,55.9,48.1,29.79,North,355,0.0,1.2,75,0.00,CLR,SKC,0.00,WeatherDisplay:10.37,2013-06-30 12:14:00,
2013-06-30 07:19:00,56.0,48.2,29.80,North,355,0.6,2.0,75,0.00,CLR,SKC,0.00,WeatherDisplay:10.37,2013-06-30 12:19:00,
2013-06-30 07:24:00,56.1,48.3,29.79,North,355,0.8,2.3,75,0.00,CLR,SKC,0.00,WeatherDisplay:10.37,2013-06-30 12:24:00,
2013-06-30 07:29:00,56.2,48.4,29.80,North,355,0.8,3.5,75,0.00,CLR,SKC,0.00,WeatherDisplay:10.37,2013-06-30 12:29:00,
2013-06-30 07:34:00,56.3,48.5,29.80,North,355,2.7,4.0,75,0.00,CLR,SKC,0.00,WeatherDisplay:10.37,2013-06-30 12:34:00,
2013-06-30 07:39:00,56.3,48.5,29.80,North,355,2.2,3.5,75,0.00,CLR,SKC,0.00,WeatherDisplay:10.37,2013-06-30 12:39:00,
2013-06-30 07:44:00,56.4,48.6,29.80,North,355,2.9,4.0,75,0.00,CLR,SKC,0.00,WeatherDisplay:10.37,2013-06-30 12:44:00,
2013-06-30 07:49:00,56.6,48.8,29.80,North,355,2.5,3.5,75,0.00,CLR,SKC,0.00,WeatherDisplay:10.37,2013-06-30 12:49:00,
2013-06-30 07:54:00,56.7,49.2,29.80,North,350,2.4,4.0,76,0.00,CLR,SKC,0.00,WeatherDisplay:10.37,2013-06-30 12:54:00,
2013-06-30 07:59:00,56.9,49.4,29.80,North,360,2.7,5.8,76,0.00,CLR,SKC,0.00,WeatherDisplay:10.37,2013-06-30 12:59:00,
2013-06-30 08:04:00,57.1,49.2,29.81,North,360,2.7,6.0,75,0.00,CLR,SKC,0.00,WeatherDisplay:10.37,2013-06-30 13:04:00,
2013-06-30 08:09:00,57.3,49.8,29.81,North,350,3.2,5.0,76,0.00,CLR,SKC,0.00,WeatherDisplay:10.37,2013-06-30 13:09:00,
2013-06-30 08:14:00,57.5,49.6,29.81,North,349,3.5,6.0,75,0.00,CLR,SKC,0.00,WeatherDisplay:10.37,2013-06-30 13:14:00,
2013-06-30 08:19:00,57.9,50.0,29.81,North,351,2.7,5.8,75,0.00,CLR,SKC,0.00,WeatherDisplay:10.37,2013-06-30 13:19:00,
2013-06-30 08:24:00,58.2,50.3,29.81,North,351,3.9,6.0,75,0.00,CLR,SKC,0.00,WeatherDisplay:10.37,2013-06-30 13:24:00,
2013-06-30 08:29:00,58.6,50.7,29.81,NNW,348,4.9,6.9,75,0.00,CLR,SKC,0.00,WeatherDisplay:10.37,2013-06-30 13:29:00,
2013-06-30 08:34:00,58.9,51.0,29.81,North,355,2.5,5.8,75,0.00,CLR,SKC,0.00,WeatherDisplay:10.37,2013-06-30 13:34:00,
2013-06-30 08:39:00,59.3,51.4,29.81,North,355,2.2,4.6,75,0.00,CLR,SKC,0.00,WeatherDisplay:10.37,2013-06-30 13:39:00,
2013-06-30 08:44:00,59.5,51.6,29.81,North,355,1.6,4.6,75,0.00,CLR,SKC,0.00,WeatherDisplay:10.37,2013-06-30 13:44:00,
2013-06-30 08:49:00,59.7,51.8,29.81,North,355,1.7,5.8,75,0.00,CLR,SKC,0.00,WeatherDisplay:10.37,2013-06-30 13:49:00,
2013-06-30 08:54:00,60.0,52.1,29.82,North,360,1.2,3.5,75,0.00,CLR,SKC,0.00,WeatherDisplay:10.37,2013-06-30 13:54:00,
2013-06-30 08:59:00,60.2,52.2,29.82,North,350,0.8,2.3,75,0.00,CLR,SKC,0.00,WeatherDisplay:10.37,2013-06-30 13:59:00,
2013-06-30 09:04:00,60.4,52.4,29.82,North,355,1.9,4.0,75,0.00,CLR,SKC,0.00,WeatherDisplay:10.37,2013-06-30 14:04:00,
2013-06-30 09:09:00,60.7,52.7,29.82,North,355,1.0,3.5,75,0.00,CLR,SKC,0.00,WeatherDisplay:10.37,2013-06-30 14:09:00,
2013-06-30 09:14:00,61.1,53.1,29.82,North,360,3.0,5.0,75,0.00,CLR,SKC,0.00,WeatherDisplay:10.37,2013-06-30 14:14:00,
2013-06-30 09:19:00,61.4,53.4,29.82,North,360,2.3,4.0,75,0.00,CLR,SKC,0.00,WeatherDisplay:10.37,2013-06-30 14:19:00,
2013-06-30 09:24:00,61.9,53.9,29.83,North,360,3.0,5.0,75,0.00,CLR,SKC,0.00,WeatherDisplay:10.37,2013-06-30 14:24:00,
2013-06-30 09:29:00,62.5,54.1,29.83,NNW,347,3.2,10.4,74,0.00,CLR,SKC,0.00,WeatherDisplay:10.37,2013-06-30 14:29:00,
2013-06-30 09:34:00,63.1,54.3,29.83,North,350,4.5,7.0,73,0.00,CLR,SKC,0.00,WeatherDisplay:10.37,2013-06-30 14:34:00,
2013-06-30 09:39:00,63.6,54.4,29.83,North,355,3.4,5.0,72,0.00,CLR,SKC,0.00,WeatherDisplay:10.37,2013-06-30 14:39:00,
2013-06-30 09:44:00,64.0,54.8,29.83,North,360,3.9,6.9,72,0.00,CLR,SKC,0.00,WeatherDisplay:10.37,2013-06-30 14:44:00,
2013-06-30 09:49:00,64.6,55.4,29.83,NNW,348,4.2,6.9,72,0.00,CLR,SKC,0.00,WeatherDisplay:10.37,2013-06-30 14:49:00,
2013-06-30 09:54:00,65.0,55.8,29.83,North,355,5.3,8.1,72,0.00,CLR,SKC,0.00,WeatherDisplay:10.37,2013-06-30 14:54:00,
2013-06-30 09:59:00,65.4,55.4,29.82,North,350,3.5,9.2,70,0.00,CLR,SKC,0.00,WeatherDisplay:10.37,2013-06-30 14:59:00,
2013-06-30 10:04:00,65.9,55.8,29.83,North,350,3.2,9.2,70,0.00,CLR,SKC,0.00,WeatherDisplay:10.37,2013-06-30 15:04:00,
2013-06-30 10:09:00,66.4,55.9,29.83,NNW,346,5.7,11.5,69,0.00,CLR,SKC,0.00,WeatherDisplay:10.37,2013-06-30 15:09:00,
2013-06-30 10:14:00,67.0,56.5,29.83,North,355,3.2,8.1,69,0.00,CLR,SKC,0.00,WeatherDisplay:10.37,2013-06-30 15:14:00,
2013-06-30 10:19:00,67.4,56.1,29.83,North,5,4.9,6.9,67,0.00,CLR,SKC,0.00,WeatherDisplay:10.37,2013-06-30 15:19:00,
2013-06-30 10:24:00,67.6,56.2,29.83,North,355,5.0,8.1,67,0.00,CLR,SKC,0.00,WeatherDisplay:10.37,2013-06-30 15:24:00,
2013-06-30 10:29:00,67.9,56.9,29.83,North,350,3.7,6.0,68,0.00,CLR,SKC,0.00,WeatherDisplay:10.37,2013-06-30 15:29:00,
2013-06-30 10:34:00,68.3,57.3,29.83,North,355,3.2,5.8,68,0.00,CLR,SKC,0.00,WeatherDisplay:10.37,2013-06-30 15:34:00,
2013-06-30 10:39:00,68.8,57.8,29.83,North,355,3.4,6.9,68,0.00,CLR,SKC,0.00,WeatherDisplay:10.37,2013-06-30 15:39:00,
2013-06-30 10:44:00,69.2,57.4,29.83,North,350,4.3,10.4,66,0.00,CLR,SKC,0.00,WeatherDisplay:10.37,2013-06-30 15:44:00,
2013-06-30 10:49:00,69.4,57.1,29.83,North,355,4.8,9.2,65,0.00,CLR,SKC,0.00,WeatherDisplay:10.37,2013-06-30 15:49:00,
2013-06-30 10:54:00,69.7,57.4,29.82,North,360,4.9,7.0,65,0.00,CLR,SKC,0.00,WeatherDisplay:10.37,2013-06-30 15:54:00,
2013-06-30 10:59:00,70.0,57.3,29.83,NNW,348,3.9,10.4,64,0.00,CLR,SKC,0.00,WeatherDisplay:10.37,2013-06-30 15:59:00,
2013-06-30 11:04:00,70.4,57.6,29.83,North,360,3.9,6.9,64,0.00,CLR,SKC,0.00,WeatherDisplay:10.37,2013-06-30 16:04:00,
2013-06-30 11:09:00,70.8,56.7,29.83,North,355,5.4,11.5,61,0.00,CLR,SKC,0.00,WeatherDisplay:10.37,2013-06-30 16:09:00,
2013-06-30 11:14:00,71.2,57.5,29.83,North,5,3.9,6.9,62,0.00,CLR,SKC,0.00,WeatherDisplay:10.37,2013-06-30 16:14:00,
2013-06-30 11:19:00,71.6,57.9,29.82,North,5,5.6,9.2,62,0.00,CLR,SKC,0.00,WeatherDisplay:10.37,2013-06-30 16:19:00,
2013-06-30 11:24:00,71.9,56.3,29.82,North,355,6.1,9.2,58,0.00,CLR,SKC,0.00,WeatherDisplay:10.37,2013-06-30 16:24:00,
2013-06-30 11:29:00,71.8,55.7,29.82,North,355,5.3,8.1,57,0.00,CLR,SKC,0.00,WeatherDisplay:10.37,2013-06-30 16:29:00,
2013-06-30 11:34:00,72.0,55.4,29.82,North,351,5.1,9.2,56,0.00,CLR,SKC,0.00,WeatherDisplay:10.37,2013-06-30 16:34:00,
2013-06-30 11:39:00,72.0,54.4,29.82,North,350,5.1,8.1,54,0.00,CLR,SKC,0.00,WeatherDisplay:10.37,2013-06-30 16:39:00,
2013-06-30 11:44:00,72.4,55.8,29.82,North,360,4.7,7.0,56,0.00,CLR,SKC,0.00,WeatherDisplay:10.37,2013-06-30 16:44:00,
2013-06-30 11:49:00,72.8,54.7,29.82,North,11,3.1,9.2,53,0.00,CLR,SKC,0.00,WeatherDisplay:10.37,2013-06-30 16:49:00,
2013-06-30 11:54:00,73.1,55.5,29.82,NNW,346,4.0,9.2,54,0.00,CLR,SKC,0.00,WeatherDisplay:10.37,2013-06-30 16:54:00,
2013-06-30 11:59:00,73.6,56.4,29.82,North,350,3.6,8.1,55,0.00,CLR,SKC,0.00,WeatherDisplay:10.37,2013-06-30 16:59:00,
2013-06-30 12:04:00,73.8,54.0,29.82,NNE,23,4.0,10.4,50,0.00,CLR,SKC,0.00,WeatherDisplay:10.37,2013-06-30 17:04:00,
2013-06-30 12:09:00,74.0,55.8,29.82,North,355,3.4,7.0,53,0.00,CLR,SKC,0.00,WeatherDisplay:10.37,2013-06-30 17:09:00,
2013-06-30 12:14:00,74.0,55.3,29.82,NNW,339,4.1,9.2,52,0.00,CLR,SKC,0.00,WeatherDisplay:10.37,2013-06-30 17:14:00,
2013-06-30 12:19:00,74.2,56.5,29.82,North,350,2.3,5.8,54,0.00,CLR,SKC,0.00,WeatherDisplay:10.37,2013-06-30 17:19:00,
2013-06-30 12:24:00,74.3,55.0,29.82,NNW,343,3.8,7.0,51,0.00,CLR,SKC,0.00,WeatherDisplay:10.37,2013-06-30 17:24:00,
2013-06-30 12:29:00,74.7,56.4,29.82,North,350,4.1,6.0,53,0.00,CLR,SKC,0.00,WeatherDisplay:10.37,2013-06-30 17:29:00,
2013-06-30 12:34:00,75.1,54.6,29.82,North,349,5.3,9.2,49,0.00,CLR,SKC,0.00,WeatherDisplay:10.37,2013-06-30 17:34:00,
2013-06-30 12:39:00,75.1,54.1,29.82,NNE,12,4.5,7.0,48,0.00,CLR,SKC,0.00,WeatherDisplay:10.37,2013-06-30 17:39:00,
2013-06-30 12:44:00,74.9,53.3,29.82,North,5,5.0,9.2,47,0.00,CLR,SKC,0.00,WeatherDisplay:10.37,2013-06-30 17:44:00,
2013-06-30 12:49:00,74.9,52.1,29.82,North,355,3.8,8.1,45,0.00,CLR,SKC,0.00,WeatherDisplay:10.37,2013-06-30 17:49:00,
2013-06-30 12:54:00,74.9,52.7,29.82,North,5,5.4,9.2,46,0.00,CLR,SKC,0.00,WeatherDisplay:10.37,2013-06-30 17:54:00,
2013-06-30 12:59:00,75.4,53.2,29.82,North,355,4.7,9.2,46,0.00,CLR,SKC,0.00,WeatherDisplay:10.37,2013-06-30 17:59:00,
2013-06-30 13:04:00,75.8,52.3,29.82,North,355,6.1,9.2,44,0.00,CLR,SKC,0.00,WeatherDisplay:10.37,2013-06-30 18:04:00,
2013-06-30 13:09:00,75.9,53.6,29.82,NNW,348,6.5,9.2,46,0.00,CLR,SKC,0.00,WeatherDisplay:10.37,2013-06-30 18:09:00,
2013-06-30 13:14:00,75.4,52.0,29.82,NNE,14,5.0,8.1,44,0.00,CLR,SKC,0.00,WeatherDisplay:10.37,2013-06-30 18:14:00,
2013-06-30 13:19:00,75.6,51.5,29.82,NNE,12,4.8,9.2,43,0.00,CLR,SKC,0.00,WeatherDisplay:10.37,2013-06-30 18:19:00,
2013-06-30 13:24:00,75.5,48.8,29.82,NE,34,3.3,7.0,39,0.00,CLR,SKC,0.00,WeatherDisplay:10.37,2013-06-30 18:24:00,
2013-06-30 13:29:00,75.7,50.3,29.82,NNE,28,2.6,6.0,41,0.00,CLR,SKC,0.00,WeatherDisplay:10.37,2013-06-30 18:29:00,
2013-06-30 13:34:00,76.1,50.7,29.82,NE,54,0.4,5.8,41,0.00,CLR,SKC,0.00,WeatherDisplay:10.37,2013-06-30 18:34:00,
2013-06-30 13:39:00,76.1,52.0,29.82,North,355,3.7,6.9,43,0.00,CLR,SKC,0.00,WeatherDisplay:10.37,2013-06-30 18:39:00,
2013-06-30 13:44:00,76.1,53.2,29.82,North,351,2.4,5.8,45,0.00,CLR,SKC,0.00,WeatherDisplay:10.37,2013-06-30 18:44:00,
2013-06-30 13:49:00,76.5,53.0,29.82,North,355,4.0,9.2,44,0.00,CLR,SKC,0.00,WeatherDisplay:10.37,2013-06-30 18:49:00,
2013-06-30 13:54:00,76.6,53.1,29.82,NNW,348,1.6,6.9,44,0.00,CLR,SKC,0.00,WeatherDisplay:10.37,2013-06-30 18:54:00,
2013-06-30 13:59:00,76.4,52.9,29.82,NNW,346,3.1,8.1,44,0.00,CLR,SKC,0.00,WeatherDisplay:10.37,2013-06-30 18:59:00,
2013-06-30 14:04:00,76.6,51.1,29.82,NNE,12,5.8,10.4,41,0.00,CLR,SKC,0.00,WeatherDisplay:10.37,2013-06-30 19:04:00,
2013-06-30 14:09:00,76.7,51.9,29.83,North,360,7.2,11.5,42,0.00,CLR,SKC,0.00,WeatherDisplay:10.37,2013-06-30 19:09:00,
2013-06-30 14:14:00,77.0,50.8,29.82,North,360,3.2,8.1,40,0.00,CLR,SKC,0.00,WeatherDisplay:10.37,2013-06-30 19:14:00,
2013-06-30 14:19:00,77.0,50.1,29.82,ENE,59,3.6,8.1,39,0.00,CLR,SKC,0.00,WeatherDisplay:10.37,2013-06-30 19:19:00,
2013-06-30 14:24:00,76.8,50.6,29.83,North,355,7.8,12.0,40,0.00,CLR,SKC,0.00,WeatherDisplay:10.37,2013-06-30 19:24:00,
2013-06-30 14:29:00,76.9,50.7,29.82,North,360,4.0,6.9,40,0.00,CLR,SKC,0.00,WeatherDisplay:10.37,2013-06-30 19:29:00,
2013-06-30 14:35:00,77.2,48.2,29.82,NE,37,5.0,8.1,36,0.00,CLR,SKC,0.00,WeatherDisplay:10.37,2013-06-30 19:35:00,
2013-06-30 14:40:00,77.3,49.0,29.82,NNE,13,2.7,8.1,37,0.00,CLR,SKC,0.00,WeatherDisplay:10.37,2013-06-30 19:40:00,
2013-06-30 14:45:00,77.4,49.8,29.83,North,355,4.0,8.1,38,0.00,CLR,SKC,0.00,WeatherDisplay:10.37,2013-06-30 19:45:00,
2013-06-30 14:50:00,77.5,49.9,29.82,NNW,346,3.1,6.0,38,0.00,CLR,SKC,0.00,WeatherDisplay:10.37,2013-06-30 19:50:00,
2013-06-30 14:55:00,77.6,50.7,29.82,North,5,5.9,12.0,39,0.00,CLR,SKC,0.00,WeatherDisplay:10.37,2013-06-30 19:55:00,
2013-06-30 15:00:00,77.7,51.5,29.82,North,360,4.0,6.0,40,0.00,CLR,SKC,0.00,WeatherDisplay:10.37,2013-06-30 20:00:00,
2013-06-30 15:05:00,77.2,49.6,29.82,North,350,3.4,5.0,38,0.00,CLR,SKC,0.00,WeatherDisplay:10.37,2013-06-30 20:05:00,
2013-06-30 15:10:00,77.0,52.1,29.82,North,355,5.1,7.0,42,0.00,CLR,SKC,0.00,WeatherDisplay:10.37,2013-06-30 20:10:00,
2013-06-30 15:15:00,77.1,51.6,29.82,NNE,28,3.5,6.9,41,0.00,CLR,SKC,0.00,WeatherDisplay:10.37,2013-06-30 20:15:00,
2013-06-30 15:20:00,77.2,53.6,29.82,NNW,348,4.7,8.1,44,0.00,CLR,SKC,0.00,WeatherDisplay:10.37,2013-06-30 20:20:00,
2013-06-30 15:25:00,77.6,53.3,29.82,NNE,14,4.2,9.0,43,0.00,CLR,SKC,0.00,WeatherDisplay:10.37,2013-06-30 20:25:00,
2013-06-30 15:30:00,77.7,52.8,29.81,North,5,1.9,6.9,42,0.00,CLR,SKC,0.00,WeatherDisplay:10.37,2013-06-30 20:30:00,
2013-06-30 15:35:00,77.7,54.7,29.81,North,360,2.9,5.8,45,0.00,CLR,SKC,0.00,WeatherDisplay:10.37,2013-06-30 20:35:00,
2013-06-30 15:40:00,77.8,53.5,29.82,North,360,6.1,10.4,43,0.00,CLR,SKC,0.00,WeatherDisplay:10.37,2013-06-30 20:40:00,
2013-06-30 15:45:00,77.8,52.9,29.81,NE,34,5.0,9.2,42,0.00,CLR,SKC,0.00,WeatherDisplay:10.37,2013-06-30 20:45:00,
2013-06-30 15:50:00,77.9,54.2,29.81,NNW,348,5.5,7.0,44,0.00,CLR,SKC,0.00,WeatherDisplay:10.37,2013-06-30 20:50:00,
2013-06-30 15:55:00,78.0,53.0,29.81,North,5,3.5,8.1,42,0.00,CLR,SKC,0.00,WeatherDisplay:10.37,2013-06-30 20:55:00,
2013-06-30 16:00:00,78.1,53.8,29.81,NNW,346,5.5,8.1,43,0.00,CLR,SKC,0.00,WeatherDisplay:10.37,2013-06-30 21:00:00,
2013-06-30 16:06:00,77.6,52.7,29.81,NNW,342,4.9,7.0,42,0.00,CLR,SKC,0.00,WeatherDisplay:10.37,2013-06-30 21:06:00,
2013-06-30 16:11:00,77.6,52.0,29.81,North,355,4.0,10.4,41,0.00,CLR,SKC,0.00,WeatherDisplay:10.37,2013-06-30 21:11:00,
2013-06-30 16:16:00,77.6,53.3,29.81,North,355,3.9,6.9,43,0.00,CLR,SKC,0.00,WeatherDisplay:10.37,2013-06-30 21:16:00,
2013-06-30 16:21:00,77.3,53.7,29.81,NNW,339,5.8,11.5,44,0.00,CLR,SKC,0.00,WeatherDisplay:10.37,2013-06-30 21:21:00,
2013-06-30 16:27:00,77.6,54.0,29.82,North,355,4.7,9.2,44,0.00,CLR,SKC,0.00,WeatherDisplay:10.37,2013-06-30 21:27:00,
2013-06-30 16:32:00,77.5,53.2,29.82,North,355,4.8,8.1,43,0.00,CLR,SKC,0.00,WeatherDisplay:10.37,2013-06-30 21:32:00,
2013-06-30 16:37:00,77.6,54.0,29.82,North,355,5.6,8.1,44,0.00,CLR,SKC,0.00,WeatherDisplay:10.37,2013-06-30 21:37:00,
2013-06-30 16:42:00,77.5,53.2,29.82,NNW,343,5.0,11.5,43,0.00,CLR,SKC,0.00,WeatherDisplay:10.37,2013-06-30 21:42:00,
2013-06-30 16:47:00,77.7,53.4,29.81,NNE,17,5.5,11.5,43,0.00,CLR,SKC,0.00,WeatherDisplay:10.37,2013-06-30 21:47:00,
2013-06-30 16:52:00,77.5,53.2,29.81,NNW,346,5.2,9.2,43,0.00,CLR,SKC,0.00,WeatherDisplay:10.37,2013-06-30 21:52:00,
2013-06-30 16:57:00,77.6,53.3,29.81,North,350,5.9,8.1,43,0.00,CLR,SKC,0.00,WeatherDisplay:10.37,2013-06-30 21:57:00,
2013-06-30 17:02:00,77.9,53.0,29.81,NNW,344,4.5,7.0,42,0.00,CLR,SKC,0.00,WeatherDisplay:10.37,2013-06-30 22:02:00,
2013-06-30 17:07:00,78.0,53.0,29.81,North,360,4.8,7.0,42,0.00,CLR,SKC,0.00,WeatherDisplay:10.37,2013-06-30 22:07:00,
2013-06-30 17:12:00,78.0,51.7,29.81,North,11,3.6,6.0,40,0.00,CLR,SKC,0.00,WeatherDisplay:10.37,2013-06-30 22:12:00,
2013-06-30 17:17:00,78.0,53.7,29.81,North,349,6.0,9.2,43,0.00,CLR,SKC,0.00,WeatherDisplay:10.37,2013-06-30 22:17:00,
2013-06-30 17:22:00,77.8,52.2,29.81,North,5,4.9,8.1,41,0.00,CLR,SKC,0.00,WeatherDisplay:10.37,2013-06-30 22:22:00,
2013-06-30 17:27:00,77.5,53.9,29.81,North,360,3.6,6.9,44,0.00,CLR,SKC,0.00,WeatherDisplay:10.37,2013-06-30 22:27:00,
2013-06-30 17:32:00,77.6,52.0,29.81,North,355,4.8,9.2,41,0.00,CLR,SKC,0.00,WeatherDisplay:10.37,2013-06-30 22:32:00,
2013-06-30 17:37:00,77.8,52.9,29.81,North,355,5.7,7.0,42,0.00,CLR,SKC,0.00,WeatherDisplay:10.37,2013-06-30 22:37:00,
2013-06-30 17:42:00,77.9,53.0,29.81,NNW,347,3.3,8.0,42,0.00,CLR,SKC,0.00,WeatherDisplay:10.37,2013-06-30 22:42:00,
2013-06-30 17:47:00,78.0,54.3,29.81,North,355,3.7,7.0,44,0.00,CLR,SKC,0.00,WeatherDisplay:10.37,2013-06-30 22:47:00,
2013-06-30 17:52:00,78.2,53.2,29.81,NNW,342,6.3,10.4,42,0.00,CLR,SKC,0.00,WeatherDisplay:10.37,2013-06-30 22:52:00,
2013-06-30 17:57:00,77.9,53.0,29.81,North,11,5.2,8.1,42,0.00,CLR,SKC,0.00,WeatherDisplay:10.37,2013-06-30 22:57:00,
2013-06-30 18:02:00,77.6,52.7,29.81,North,355,5.1,8.1,42,0.00,CLR,SKC,0.00,WeatherDisplay:10.37,2013-06-30 23:02:00,
2013-06-30 18:07:00,77.4,52.5,29.81,North,355,6.8,9.2,42,0.00,CLR,SKC,0.00,WeatherDisplay:10.37,2013-06-30 23:07:00,
2013-06-30 18:13:00,77.3,53.1,29.81,North,351,4.9,8.1,43,0.00,CLR,SKC,0.00,WeatherDisplay:10.37,2013-06-30 23:13:00,
2013-06-30 18:18:00,77.3,53.1,29.81,NNW,340,3.4,5.8,43,0.00,CLR,SKC,0.00,WeatherDisplay:10.37,2013-06-30 23:18:00,
2013-06-30 18:23:00,77.4,53.1,29.81,NNW,347,3.3,7.0,43,0.00,CLR,SKC,0.00,WeatherDisplay:10.37,2013-06-30 23:23:00,
2013-06-30 18:28:00,77.4,53.8,29.81,NNW,348,5.4,8.1,44,0.00,CLR,SKC,0.00,WeatherDisplay:10.37,2013-06-30 23:28:00,
2013-06-30 18:33:00,77.3,53.1,29.81,North,360,5.4,9.2,43,0.00,CLR,SKC,0.00,WeatherDisplay:10.37,2013-06-30 23:33:00,
2013-06-30 18:38:00,77.3,53.1,29.81,North,355,4.7,10.4,43,0.00,CLR,SKC,0.00,WeatherDisplay:10.37,2013-06-30 23:38:00,
2013-06-30 18:43:00,77.2,53.6,29.81,North,355,4.8,6.9,44,0.00,CLR,SKC,0.00,WeatherDisplay:10.37,2013-06-30 23:43:00,
2013-06-30 18:48:00,77.0,53.4,29.81,NNW,347,5.7,9.2,44,0.00,CLR,SKC,0.00,WeatherDisplay:10.37,2013-06-30 23:48:00,
2013-06-30 18:53:00,76.8,53.2,29.81,North,9,5.7,8.1,44,0.00,CLR,SKC,0.00,WeatherDisplay:10.37,2013-06-30 23:53:00,
2013-06-30 18:58:00,76.6,53.1,29.81,North,355,4.4,8.1,44,0.00,CLR,SKC,0.00,WeatherDisplay:10.37,2013-06-30 23:58:00,
2013-06-30 19:03:00,76.2,52.1,29.81,NNW,346,6.1,9.2,43,0.00,CLR,SKC,0.00,WeatherDisplay:10.37,2013-07-01 00:03:00,
2013-06-30 19:08:00,75.7,52.2,29.81,North,9,4.3,6.9,44,0.00,CLR,SKC,0.00,WeatherDisplay:10.37,2013-07-01 00:08:00,
2013-06-30 19:13:00,75.3,52.5,29.81,North,360,4.1,6.9,45,0.00,CLR,SKC,0.00,WeatherDisplay:10.37,2013-07-01 00:13:00,
2013-06-30 19:18:00,75.0,52.8,29.81,North,355,3.5,6.0,46,0.00,CLR,SKC,0.00,WeatherDisplay:10.37,2013-07-01 00:18:00,
2013-06-30 19:23:00,74.8,53.8,29.81,North,355,3.3,5.8,48,0.00,CLR,SKC,0.00,WeatherDisplay:10.37,2013-07-01 00:23:00,
2013-06-30 19:29:00,74.6,53.6,29.81,North,360,3.5,5.0,48,0.00,CLR,SKC,0.00,WeatherDisplay:10.37,2013-07-01 00:29:00,
2013-06-30 19:34:00,74.5,55.2,29.82,North,355,2.8,6.9,51,0.00,CLR,SKC,0.00,WeatherDisplay:10.37,2013-07-01 00:34:00,
2013-06-30 19:39:00,74.3,54.5,29.82,NNE,20,3.2,5.0,50,0.00,CLR,SKC,0.00,WeatherDisplay:10.37,2013-07-01 00:39:00,
2013-06-30 19:44:00,74.0,54.2,29.81,NNE,16,3.4,5.0,50,0.00,CLR,SKC,0.00,WeatherDisplay:10.37,2013-07-01 00:44:00,
2013-06-30 19:49:00,73.8,55.1,29.81,NNE,15,3.1,4.0,52,0.00,CLR,SKC,0.00,WeatherDisplay:10.37,2013-07-01 00:49:00,
2013-06-30 19:54:00,73.5,54.8,29.81,NNE,15,3.0,4.0,52,0.00,CLR,SKC,0.00,WeatherDisplay:10.37,2013-07-01 00:54:00,
2013-06-30 19:59:00,73.2,56.1,29.81,NNE,15,2.4,3.5,55,0.00,CLR,SKC,0.00,WeatherDisplay:10.37,2013-07-01 00:59:00,
2013-06-30 20:04:00,72.8,56.2,29.81,NNE,15,2.3,4.0,56,0.00,CLR,SKC,0.00,WeatherDisplay:10.37,2013-07-01 01:04:00,
2013-06-30 20:09:00,72.5,55.9,29.81,NNE,15,2.7,5.0,56,0.00,CLR,SKC,0.00,WeatherDisplay:10.37,2013-07-01 01:09:00,
2013-06-30 20:14:00,72.2,56.1,29.81,NNE,15,2.2,3.5,57,0.00,CLR,SKC,0.00,WeatherDisplay:10.37,2013-07-01 01:14:00,
2013-06-30 20:19:00,71.9,56.3,29.82,NNE,15,2.3,3.5,58,0.00,CLR,SKC,0.00,WeatherDisplay:10.37,2013-07-01 01:19:00,
2013-06-30 20:24:00,71.7,56.6,29.82,NNE,15,1.8,3.5,59,0.00,CLR,SKC,0.00,WeatherDisplay:10.37,2013-07-01 01:24:00,
2013-06-30 20:29:00,71.4,56.3,29.82,NNE,15,1.1,2.3,59,0.00,CLR,SKC,0.00,WeatherDisplay:10.37,2013-07-01 01:29:00,
2013-06-30 20:35:00,71.2,56.6,29.82,NNE,15,0.0,1.2,60,0.00,CLR,SKC,0.00,WeatherDisplay:10.37,2013-07-01 01:35:00,
2013-06-30 20:40:00,71.0,56.4,29.82,NNE,15,0.0,0.0,60,0.00,CLR,SKC,0.00,WeatherDisplay:10.37,2013-07-01 01:40:00,
2013-06-30 20:45:00,70.8,57.1,29.82,NNE,15,0.0,0.0,62,0.00,CLR,SKC,0.00,WeatherDisplay:10.37,2013-07-01 01:45:00,
2013-06-30 20:50:00,70.3,56.7,29.82,NNE,15,0.0,0.0,62,0.00,CLR,SKC,0.00,WeatherDisplay:10.37,2013-07-01 01:50:00,
2013-06-30 20:55:00,70.0,56.8,29.82,NNE,15,0.0,0.0,63,0.00,CLR,SKC,0.00,WeatherDisplay:10.37,2013-07-01 01:55:00,
2013-06-30 21:00:00,69.7,56.1,29.82,NNE,15,0.0,0.0,62,0.00,CLR,SKC,0.00,WeatherDisplay:10.37,2013-07-01 02:00:00,
2013-06-30 21:05:00,69.5,56.3,29.82,NNE,15,0.0,0.0,63,0.00,CLR,SKC,0.00,WeatherDisplay:10.37,2013-07-01 02:05:00,
2013-06-30 21:10:00,69.4,57.1,29.82,NNE,15,0.0,0.0,65,0.00,CLR,SKC,0.00,WeatherDisplay:10.37,2013-07-01 02:10:00,
2013-06-30 21:15:00,69.3,57.0,29.83,NNE,15,0.0,0.0,65,0.00,CLR,SKC,0.00,WeatherDisplay:10.37,2013-07-01 02:15:00,
2013-06-30 21:20:00,69.2,56.5,29.83,NNE,15,0.0,0.0,64,0.00,CLR,SKC,0.00,WeatherDisplay:10.37,2013-07-01 02:20:00,
2013-06-30 21:25:00,69.1,56.4,29.83,NNE,15,0.0,0.0,64,0.00,CLR,SKC,0.00,WeatherDisplay:10.37,2013-07-01 02:25:00,
2013-06-30 21:30:00,69.0,56.3,29.83,NNE,15,0.0,0.0,64,0.00,CLR,SKC,0.00,WeatherDisplay:10.37,2013-07-01 02:30:00,
2013-06-30 21:35:00,68.9,56.6,29.83,NNE,15,0.0,0.0,65,0.00,CLR,SKC,0.00,WeatherDisplay:10.37,2013-07-01 02:35:00,
2013-06-30 21:40:00,68.8,57.0,29.83,NNE,15,0.0,0.0,66,0.00,CLR,SKC,0.00,WeatherDisplay:10.37,2013-07-01 02:40:00,
2013-06-30 21:45:00,68.6,56.4,29.84,NNE,15,0.0,0.0,65,0.00,CLR,SKC,0.00,WeatherDisplay:10.37,2013-07-01 02:45:00,
2013-06-30 21:50:00,68.4,56.2,29.83,NNE,15,0.0,1.2,65,0.00,CLR,SKC,0.00,WeatherDisplay:10.37,2013-07-01 02:50:00,
2013-06-30 21:55:00,68.3,56.5,29.84,NNE,15,0.0,0.0,66,0.00,CLR,SKC,0.00,WeatherDisplay:10.37,2013-07-01 02:55:00,
2013-06-30 22:00:00,68.1,57.1,29.84,NNE,15,0.0,0.0,68,0.00,CLR,SKC,0.00,WeatherDisplay:10.37,2013-07-01 03:00:00,
2013-06-30 22:05:00,67.5,57.4,29.84,NNE,15,0.0,0.0,70,0.00,CLR,SKC,0.00,WeatherDisplay:10.37,2013-07-01 03:05:00,
2013-06-30 22:10:00,66.6,56.9,29.84,NNE,15,0.0,0.0,71,0.00,CLR,SKC,0.00,WeatherDisplay:10.37,2013-07-01 03:10:00,
2013-06-30 22:15:00,65.8,56.9,29.84,NNE,15,0.0,0.0,73,0.00,CLR,SKC,0.00,WeatherDisplay:10.37,2013-07-01 03:15:00,
2013-06-30 22:20:00,65.2,56.3,29.84,NNE,15,0.0,0.0,73,0.00,CLR,SKC,0.00,WeatherDisplay:10.37,2013-07-01 03:20:00,
2013-06-30 22:25:00,64.8,55.9,29.84,NNE,15,0.0,0.0,73,0.00,CLR,SKC,0.00,WeatherDisplay:10.37,2013-07-01 03:25:00,
2013-06-30 22:30:00,64.6,55.7,29.84,NNE,15,0.0,0.0,73,0.00,CLR,SKC,0.00,WeatherDisplay:10.37,2013-07-01 03:30:00,
2013-06-30 22:35:00,64.5,55.7,29.84,NNE,15,0.0,0.0,73,0.00,CLR,SKC,0.00,WeatherDisplay:10.37,2013-07-01 03:35:00,
2013-06-30 22:40:00,64.4,55.6,29.84,NNE,15,0.0,0.0,73,0.00,CLR,SKC,0.00,WeatherDisplay:10.37,2013-07-01 03:40:00,
2013-06-30 22:45:00,64.3,55.5,29.84,NNE,15,0.0,0.0,73,0.00,CLR,SKC,0.00,WeatherDisplay:10.37,2013-07-01 03:45:00,
2013-06-30 22:50:00,64.1,55.3,29.84,NNE,15,0.0,0.0,73,0.00,CLR,SKC,0.00,WeatherDisplay:10.37,2013-07-01 03:50:00,
2013-06-30 22:55:00,64.0,55.2,29.84,NNE,15,0.0,0.0,73,0.00,CLR,SKC,0.00,WeatherDisplay:10.37,2013-07-01 03:55:00,
2013-06-30 23:00:00,63.8,55.0,29.84,NNE,15,0.0,0.0,73,0.00,CLR,SKC,0.00,WeatherDisplay:10.37,2013-07-01 04:00:00,
2013-06-30 23:01:00,63.8,55.0,29.84,NNE,15,0.0,0.0,73,0.00,CLR,SKC,0.00,WeatherDisplay:10.37,2013-07-01 04:01:00,
2013-06-30 23:03:00,63.8,55.0,29.84,NNE,15,0.0,0.0,73,0.00,CLR,SKC,0.00,WeatherDisplay:10.37,2013-07-01 04:03:00,
2013-06-30 23:04:00,63.8,55.0,29.84,NNE,15,0.0,0.0,73,0.00,CLR,SKC,0.00,WeatherDisplay:10.37,2013-07-01 04:04:00,
2013-06-30 23:05:00,63.8,55.0,29.84,NNE,15,0.0,0.0,73,0.00,CLR,SKC,0.00,WeatherDisplay:10.37,2013-07-01 04:05:00,
2013-06-30 23:07:00,63.7,54.9,29.84,NNE,15,0.0,0.0,73,0.00,CLR,SKC,0.00,WeatherDisplay:10.37,2013-07-01 04:07:00,
2013-06-30 23:12:00,63.7,55.3,29.84,NNE,15,0.0,0.0,74,0.00,CLR,SKC,0.00,WeatherDisplay:10.37,2013-07-01 04:12:00,
2013-06-30 23:17:00,63.5,55.1,29.84,NNE,15,0.0,0.0,74,0.00,CLR,SKC,0.00,WeatherDisplay:10.37,2013-07-01 04:17:00,
2013-06-30 23:22:00,63.3,54.9,29.84,NNE,15,0.0,0.0,74,0.00,CLR,SKC,0.00,WeatherDisplay:10.37,2013-07-01 04:22:00,
2013-06-30 23:27:00,63.1,54.7,29.84,NNE,15,0.0,0.0,74,0.00,CLR,SKC,0.00,WeatherDisplay:10.37,2013-07-01 04:27:00,
2013-06-30 23:32:00,63.0,54.6,29.85,NNE,15,0.0,0.0,74,0.00,CLR,SKC,0.00,WeatherDisplay:10.37,2013-07-01 04:32:00,
2013-06-30 23:38:00,63.0,54.6,29.85,NNE,15,0.0,0.0,74,0.00,CLR,SKC,0.00,WeatherDisplay:10.37,2013-07-01 04:38:00,
2013-06-30 23:43:00,63.0,54.6,29.85,NNE,15,0.0,0.0,74,0.00,CLR,SKC,0.00,WeatherDisplay:10.37,2013-07-01 04:43:00,
2013-06-30 23:48:00,62.8,54.4,29.85,NNE,15,0.0,0.0,74,0.00,CLR,SKC,0.00,WeatherDisplay:10.37,2013-07-01 04:48:00,
2013-06-30 23:53:00,62.7,54.3,29.85,NNE,15,0.0,0.0,74,0.00,CLR,SKC,0.00,WeatherDisplay:10.37,2013-07-01 04:53:00,
2013-06-30 23:58:00,62.5,54.1,29.85,NNE,15,0.0,0.0,74,0.00,CLR,SKC,0.00,WeatherDisplay:10.37,2013-07-01 04:58:00,